Time,TemperatureF,DewpointF,PressureIn,WindDirection,WindDirectionDegrees,WindSpeedMPH,WindSpeedGustMPH,Humidity,HourlyPrecipIn,Conditions,Clouds,dailyrainin,SoftwareType,DateUTC
2013-03-30 00:02:00,37.0,22.0,30.10,South,180,0.0,0.0,55,-99.99,,,-99.99,,2013-03-30 05:02:00,
2013-03-30 00:12:00,37.0,22.0,30.10,South,180,0.0,0.0,55,-99.99,,,-99.99,,2013-03-30 05:12:00,
2013-03-30 00:22:00,36.0,22.0,30.10,SE,144,1.0,1.0,57,-99.99,,,-99.99,,2013-03-30 05:22:00,
2013-03-30 00:32:00,36.0,22.0,30.09,South,180,1.0,1.0,57,-99.99,,,-99.99,,2013-03-30 05:32:00,
2013-03-30 00:42:00,36.0,22.0,30.09,South,180,1.0,1.0,57,-99.99,,,-99.99,,2013-03-30 05:42:00,
2013-03-30 00:52:00,36.0,22.0,30.09,South,180,1.0,1.0,57,-99.99,,,-99.99,,2013-03-30 05:52:00,
2013-03-30 01:02:00,36.0,22.0,30.08,SE,135,1.0,1.0,57,-99.99,,,-99.99,,2013-03-30 06:02:00,
2013-03-30 01:11:00,36.0,22.0,30.08,SE,135,1.0,1.0,57,-99.99,,,-99.99,,2013-03-30 06:11:00,
2013-03-30 01:23:00,36.0,22.0,30.08,SE,135,1.0,1.0,57,-99.99,,,-99.99,,2013-03-30 06:23:00,
2013-03-30 01:32:00,36.0,22.0,30.08,SE,135,1.0,1.0,57,-99.99,,,-99.99,,2013-03-30 06:32:00,
2013-03-30 01:42:00,36.0,22.0,30.08,SE,135,1.0,1.0,57,-99.99,,,-99.99,,2013-03-30 06:42:00,
2013-03-30 01:52:00,36.0,22.0,30.08,SSE,148,1.0,2.0,57,-99.99,,,-99.99,,2013-03-30 06:52:00,
2013-03-30 02:02:00,36.0,22.0,30.08,SSE,148,1.0,2.0,57,-99.99,,,-99.99,,2013-03-30 07:02:00,
2013-03-30 02:12:00,36.0,22.0,30.08,SSE,148,1.0,2.0,57,-99.99,,,-99.99,,2013-03-30 07:12:00,
2013-03-30 02:22:00,36.0,22.0,30.06,SSE,164,1.0,1.0,57,-99.99,,,-99.99,,2013-03-30 07:22:00,
2013-03-30 02:32:00,36.0,22.0,30.06,SSE,164,1.0,1.0,57,-99.99,,,-99.99,,2013-03-30 07:32:00,
2013-03-30 02:42:00,36.0,22.0,30.06,SSE,164,1.0,1.0,57,-99.99,,,-99.99,,2013-03-30 07:42:00,
2013-03-30 02:52:00,36.0,22.0,30.05,South,175,1.0,1.0,56,-99.99,,,-99.99,,2013-03-30 07:52:00,
2013-03-30 03:02:00,36.0,22.0,30.05,South,175,1.0,1.0,56,-99.99,,,-99.99,,2013-03-30 08:02:00,
2013-03-30 03:12:00,36.0,22.0,30.05,South,175,1.0,1.0,56,-99.99,,,-99.99,,2013-03-30 08:12:00,
2013-03-30 03:21:00,36.0,22.0,30.05,South,175,1.0,1.0,56,-99.99,,,-99.99,,2013-03-30 08:21:00,
2013-03-30 03:32:00,36.0,22.0,30.05,South,175,1.0,1.0,56,-99.99,,,-99.99,,2013-03-30 08:32:00,
2013-03-30 05:33:00,37.0,23.0,30.00,South,180,2.0,3.0,56,-99.99,,,-99.99,,2013-03-30 10:33:00,
2013-03-30 05:42:00,37.0,23.0,30.00,South,180,2.0,3.0,56,-99.99,,,-99.99,,2013-03-30 10:42:00,
2013-03-30 05:52:00,37.0,23.0,29.99,SE,135,1.0,3.0,57,-99.99,,,-99.99,,2013-03-30 10:52:00,
2013-03-30 06:03:00,37.0,24.0,29.98,ESE,121,2.0,3.0,59,-99.99,,,-99.99,,2013-03-30 11:03:00,
2013-03-30 06:12:00,37.0,24.0,29.98,ESE,121,2.0,3.0,59,-99.99,,,-99.99,,2013-03-30 11:12:00,
2013-03-30 06:22:00,37.0,24.0,29.98,SSE,148,2.0,3.0,59,-99.99,,,-99.99,,2013-03-30 11:22:00,
2013-03-30 06:32:00,37.0,24.0,29.98,SSE,148,1.0,5.0,58,-99.99,,,-99.99,,2013-03-30 11:32:00,
2013-03-30 06:42:00,37.0,24.0,29.98,SSE,148,1.0,5.0,58,-99.99,,,-99.99,,2013-03-30 11:42:00,
2013-03-30 06:53:00,37.0,24.0,29.97,SE,135,1.0,4.0,58,-99.99,,,-99.99,,2013-03-30 11:53:00,
2013-03-30 07:02:00,37.0,24.0,29.97,SE,135,1.0,4.0,58,-99.99,,,-99.99,,2013-03-30 12:02:00,
2013-03-30 07:12:00,37.0,24.0,29.97,SE,135,1.0,4.0,58,-99.99,,,-99.99,,2013-03-30 12:12:00,
2013-03-30 07:22:00,37.0,24.0,29.96,SSE,148,2.0,5.0,60,-99.99,,,-99.99,,2013-03-30 12:22:00,
2013-03-30 07:33:00,37.0,24.0,29.95,SSE,148,2.0,5.0,58,-99.99,,,-99.99,,2013-03-30 12:33:00,
2013-03-30 07:42:00,37.0,24.0,29.95,SSE,148,2.0,5.0,58,-99.99,,,-99.99,,2013-03-30 12:42:00,
2013-03-30 07:53:00,37.0,24.0,29.95,South,180,1.0,5.0,59,-99.99,,,-99.99,,2013-03-30 12:53:00,
2013-03-30 08:02:00,37.0,24.0,29.94,SSE,166,6.0,8.0,59,-99.99,,,-99.99,,2013-03-30 13:02:00,
2013-03-30 08:12:00,37.0,24.0,29.94,SSE,166,6.0,8.0,59,-99.99,,,-99.99,,2013-03-30 13:12:00,
2013-03-30 08:22:00,37.0,24.0,29.94,SSE,148,2.0,4.0,60,-99.99,,,-99.99,,2013-03-30 13:22:00,
2013-03-30 08:32:00,37.0,24.0,29.93,SE,146,1.0,4.0,60,-99.99,,,-99.99,,2013-03-30 13:32:00,
2013-03-30 08:42:00,37.0,24.0,29.93,SE,146,1.0,4.0,60,-99.99,,,-99.99,,2013-03-30 13:42:00,
2013-03-30 08:52:00,37.0,24.0,29.93,SE,146,1.0,4.0,60,-99.99,,,-99.99,,2013-03-30 13:52:00,
2013-03-30 09:02:00,37.0,24.0,29.93,SE,146,1.0,4.0,60,-99.99,,,-99.99,,2013-03-30 14:02:00,
2013-03-30 09:11:00,37.0,24.0,29.93,SE,146,1.0,4.0,60,-99.99,,,-99.99,,2013-03-30 14:11:00,
2013-03-30 09:23:00,38.0,26.0,29.91,South,175,3.0,3.0,61,-99.99,,,-99.99,,2013-03-30 14:23:00,
2013-03-30 09:32:00,38.0,26.0,29.91,South,175,3.0,3.0,61,-99.99,,,-99.99,,2013-03-30 14:32:00,
2013-03-30 09:43:00,38.0,26.0,29.91,South,175,3.0,3.0,61,-99.99,,,-99.99,,2013-03-30 14:43:00,
2013-03-30 09:52:00,38.0,26.0,29.91,South,175,3.0,3.0,61,-99.99,,,-99.99,,2013-03-30 14:52:00,
2013-03-30 10:02:00,38.0,26.0,29.91,South,175,3.0,3.0,61,-99.99,,,-99.99,,2013-03-30 15:02:00,
2013-03-30 10:23:00,39.0,27.0,29.90,NW,315,0.0,1.0,61,-99.99,,,-99.99,,2013-03-30 15:23:00,
2013-03-30 10:34:00,39.0,27.0,29.90,NW,315,0.0,1.0,61,-99.99,,,-99.99,,2013-03-30 15:34:00,
2013-03-30 10:43:00,39.0,27.0,29.90,NW,315,0.0,1.0,61,-99.99,,,-99.99,,2013-03-30 15:43:00,
2013-03-30 10:53:00,40.0,28.0,29.91,SE,126,0.0,1.0,61,-99.99,,,-99.99,,2013-03-30 15:53:00,
2013-03-30 11:03:00,40.0,28.0,29.91,SE,126,0.0,1.0,61,-99.99,,,-99.99,,2013-03-30 16:03:00,
2013-03-30 11:13:00,40.0,28.0,29.90,SE,135,1.0,1.0,61,-99.99,,,-99.99,,2013-03-30 16:13:00,
2013-03-30 11:23:00,40.0,28.0,29.90,SE,135,1.0,1.0,61,-99.99,,,-99.99,,2013-03-30 16:23:00,
2013-03-30 11:33:00,40.0,27.0,29.89,East,90,0.0,1.0,60,-99.99,,,-99.99,,2013-03-30 16:33:00,
2013-03-30 11:43:00,40.0,27.0,29.89,East,90,0.0,1.0,60,-99.99,,,-99.99,,2013-03-30 16:43:00,
2013-03-30 11:52:00,40.0,27.0,29.88,SSE,148,0.0,3.0,60,-99.99,,,-99.99,,2013-03-30 16:52:00,
2013-03-30 12:02:00,41.0,28.0,29.87,ESE,103,1.0,3.0,59,-99.99,,,-99.99,,2013-03-30 17:02:00,
2013-03-30 12:13:00,41.0,28.0,29.87,ESE,103,1.0,3.0,59,-99.99,,,-99.99,,2013-03-30 17:13:00,
2013-03-30 12:22:00,41.0,27.0,29.87,ESE,117,2.0,2.0,58,-99.99,,,-99.99,,2013-03-30 17:22:00,
2013-03-30 12:32:00,41.0,27.0,29.87,ESE,117,2.0,2.0,58,-99.99,,,-99.99,,2013-03-30 17:32:00,
2013-03-30 12:42:00,41.0,27.0,29.87,ESE,117,2.0,2.0,58,-99.99,,,-99.99,,2013-03-30 17:42:00,
2013-03-30 12:53:00,41.0,28.0,29.85,SE,135,1.0,3.0,60,-99.99,,,-99.99,,2013-03-30 17:53:00,
2013-03-30 13:03:00,41.0,29.0,29.84,South,180,2.0,3.0,61,-99.99,,,-99.99,,2013-03-30 18:03:00,
2013-03-30 13:12:00,41.0,29.0,29.84,SE,135,1.0,3.0,62,-99.99,,,-99.99,,2013-03-30 18:12:00,
2013-03-30 13:22:00,41.0,29.0,29.84,SE,135,1.0,3.0,62,-99.99,,,-99.99,,2013-03-30 18:22:00,
2013-03-30 13:32:00,43.0,32.0,29.83,SE,135,0.0,4.0,65,-99.99,,,-99.99,,2013-03-30 18:32:00,
2013-03-30 13:42:00,43.0,32.0,29.83,SE,135,0.0,4.0,65,-99.99,,,-99.99,,2013-03-30 18:42:00,
2013-03-30 13:53:00,44.0,32.0,29.82,SSE,153,1.0,3.0,63,-99.99,,,-99.99,,2013-03-30 18:53:00,
2013-03-30 14:03:00,44.0,32.0,29.81,South,177,1.0,2.0,63,-99.99,,,-99.99,,2013-03-30 19:03:00,
2013-03-30 14:13:00,44.0,32.0,29.81,South,177,1.0,2.0,63,-99.99,,,-99.99,,2013-03-30 19:13:00,
2013-03-30 14:22:00,45.0,33.0,29.81,SSW,198,1.0,6.0,62,-99.99,,,-99.99,,2013-03-30 19:22:00,
2013-03-30 14:32:00,45.0,33.0,29.81,SSW,198,1.0,6.0,62,-99.99,,,-99.99,,2013-03-30 19:32:00,
2013-03-30 14:42:00,45.0,33.0,29.81,SSW,198,1.0,6.0,62,-99.99,,,-99.99,,2013-03-30 19:42:00,
2013-03-30 14:53:00,46.0,33.0,29.79,SE,135,0.0,4.0,60,-99.99,,,-99.99,,2013-03-30 19:53:00,
2013-03-30 15:02:00,46.0,33.0,29.79,SSE,148,0.0,3.0,61,-99.99,,,-99.99,,2013-03-30 20:02:00,
2013-03-30 15:12:00,46.0,33.0,29.79,SSE,148,0.0,3.0,61,-99.99,,,-99.99,,2013-03-30 20:12:00,
2013-03-30 15:22:00,46.0,33.0,29.79,SSE,148,0.0,3.0,61,-99.99,,,-99.99,,2013-03-30 20:22:00,
2013-03-30 15:32:00,45.0,33.0,29.78,SE,144,1.0,4.0,62,-99.99,,,-99.99,,2013-03-30 20:32:00,
2013-03-30 15:42:00,45.0,33.0,29.78,SE,144,1.0,4.0,62,-99.99,,,-99.99,,2013-03-30 20:42:00,
2013-03-30 15:53:00,45.0,32.0,29.77,SE,144,3.0,4.0,61,-99.99,,,-99.99,,2013-03-30 20:53:00,
2013-03-30 16:02:00,45.0,32.0,29.77,SSE,159,2.0,3.0,61,-99.99,,,-99.99,,2013-03-30 21:02:00,
2013-03-30 16:12:00,45.0,32.0,29.77,SSE,159,2.0,3.0,61,-99.99,,,-99.99,,2013-03-30 21:12:00,
2013-03-30 16:22:00,44.0,33.0,29.77,South,180,0.0,1.0,65,-99.99,,,-99.99,,2013-03-30 21:22:00,
2013-03-30 16:33:00,44.0,34.0,29.77,South,180,0.0,1.0,69,-99.99,,,-99.99,,2013-03-30 21:33:00,
2013-03-30 16:43:00,44.0,34.0,29.77,South,180,0.0,1.0,69,-99.99,,,-99.99,,2013-03-30 21:43:00,
2013-03-30 16:53:00,44.0,35.0,29.77,SE,135,0.0,2.0,70,-99.99,,,-99.99,,2013-03-30 21:53:00,
2013-03-30 17:03:00,44.0,35.0,29.77,SE,135,0.0,2.0,70,-99.99,,,-99.99,,2013-03-30 22:03:00,
2013-03-30 17:13:00,44.0,35.0,29.77,SE,135,0.0,2.0,70,-99.99,,,-99.99,,2013-03-30 22:13:00,
2013-03-30 17:23:00,44.0,35.0,29.77,SE,135,0.0,2.0,70,-99.99,,,-99.99,,2013-03-30 22:23:00,
2013-03-30 17:33:00,43.0,37.0,29.76,South,189,0.0,3.0,78,-99.99,,,-99.99,,2013-03-30 22:33:00,
2013-03-30 17:43:00,43.0,37.0,29.76,South,189,0.0,3.0,78,-99.99,,,-99.99,,2013-03-30 22:43:00,
2013-03-30 17:53:00,42.0,36.0,29.76,South,182,2.0,3.0,78,-99.99,,,-99.99,,2013-03-30 22:53:00,
2013-03-30 18:02:00,42.0,36.0,29.75,South,180,1.0,2.0,80,-99.99,,,-99.99,,2013-03-30 23:02:00,
2013-03-30 18:12:00,42.0,36.0,29.75,South,180,1.0,2.0,80,-99.99,,,-99.99,,2013-03-30 23:12:00,
2013-03-30 18:22:00,42.0,36.0,29.75,South,180,1.0,2.0,80,-99.99,,,-99.99,,2013-03-30 23:22:00,
2013-03-30 18:32:00,42.0,36.0,29.74,South,180,1.0,3.0,80,-99.99,,,-99.99,,2013-03-30 23:32:00,
2013-03-30 18:42:00,42.0,36.0,29.74,South,180,1.0,3.0,80,-99.99,,,-99.99,,2013-03-30 23:42:00,
2013-03-30 18:53:00,42.0,36.0,29.74,SE,135,1.0,3.0,80,-99.99,,,-99.99,,2013-03-30 23:53:00,
2013-03-30 19:02:00,42.0,36.0,29.74,SE,135,1.0,3.0,80,-99.99,,,-99.99,,2013-03-31 00:02:00,
2013-03-30 19:12:00,42.0,36.0,29.74,SE,135,1.0,3.0,80,-99.99,,,-99.99,,2013-03-31 00:12:00,
2013-03-30 19:22:00,41.0,34.0,29.73,South,180,0.0,2.0,77,-99.99,,,-99.99,,2013-03-31 00:22:00,
2013-03-30 19:33:00,41.0,35.0,29.73,East,90,0.0,1.0,78,-99.99,,,-99.99,,2013-03-31 00:33:00,
2013-03-30 19:43:00,41.0,35.0,29.73,East,90,0.0,1.0,78,-99.99,,,-99.99,,2013-03-31 00:43:00,
2013-03-30 19:53:00,41.0,35.0,29.73,South,180,0.0,1.0,78,-99.99,,,-99.99,,2013-03-31 00:53:00,
2013-03-30 20:02:00,41.0,34.0,29.72,SW,225,0.0,0.0,76,-99.99,,,-99.99,,2013-03-31 01:02:00,
2013-03-30 20:12:00,41.0,34.0,29.72,SW,225,0.0,0.0,76,-99.99,,,-99.99,,2013-03-31 01:12:00,
2013-03-30 20:22:00,41.0,34.0,29.73,SW,216,1.0,2.0,77,-99.99,,,-99.99,,2013-03-31 01:22:00,
2013-03-30 20:32:00,41.0,34.0,29.73,West,279,2.0,3.0,77,-99.99,,,-99.99,,2013-03-31 01:32:00,
2013-03-30 20:42:00,41.0,34.0,29.73,West,279,2.0,3.0,77,-99.99,,,-99.99,,2013-03-31 01:42:00,
2013-03-30 20:52:00,41.0,34.0,29.73,West,279,2.0,3.0,77,-99.99,,,-99.99,,2013-03-31 01:52:00,
2013-03-30 21:02:00,41.0,34.0,29.73,NW,326,1.0,5.0,77,-99.99,,,-99.99,,2013-03-31 02:02:00,
2013-03-30 21:12:00,41.0,34.0,29.73,NW,326,1.0,5.0,77,-99.99,,,-99.99,,2013-03-31 02:12:00,
2013-03-30 21:22:00,41.0,34.0,29.73,NW,326,1.0,5.0,77,-99.99,,,-99.99,,2013-03-31 02:22:00,
2013-03-30 21:32:00,41.0,34.0,29.73,NW,326,1.0,5.0,77,-99.99,,,-99.99,,2013-03-31 02:32:00,
2013-03-30 22:33:00,40.0,33.0,29.74,West,279,4.0,4.0,76,-99.99,,,-99.99,,2013-03-31 03:33:00,
2013-03-30 22:44:00,40.0,33.0,29.74,West,279,4.0,4.0,76,-99.99,,,-99.99,,2013-03-31 03:44:00,
2013-03-30 22:54:00,40.0,33.0,29.74,NNW,333,1.0,4.0,76,-99.99,,,-99.99,,2013-03-31 03:54:00,
2013-03-30 23:03:00,40.0,-99.9,29.73,West,272,2.0,5.0,76,-99.99,,,-99.99,,2013-03-31 04:03:00,
2013-03-30 23:13:00,40.0,33.0,29.73,West,272,2.0,5.0,76,-99.99,,,-99.99,,2013-03-31 04:13:00,
2013-03-30 23:23:00,40.0,33.0,29.73,West,272,2.0,5.0,76,-99.99,,,-99.99,,2013-03-31 04:23:00,
2013-03-30 23:32:00,39.0,32.0,29.73,West,263,1.0,2.0,76,-99.99,,,-99.99,,2013-03-31 04:32:00,
2013-03-30 23:42:00,39.0,32.0,29.73,West,263,1.0,2.0,76,-99.99,,,-99.99,,2013-03-31 04:42:00,
2013-03-30 23:53:00,39.0,32.0,29.73,West,263,1.0,2.0,76,-99.99,,,-99.99,,2013-03-31 04:53:00,